FENGYUN 1C DEB, 29892

Orbit data source: Space-Track

FENGYUN 1C DEB, 29892 is space debris in SSO originally from a launch on Mon, 10 May 1999 UTC launched from the Taiyaun Space Center, China (TSC). Fengyun 1C debris stems from the Chinese weather satellite Fengyun-1C, which was intentionally destroyed by a Chinese anti-satellite missile in 2007. This event dramatically increased the amount of space debris, with thousands of trackable fragments posing hazards to satellites and human spaceflight. The Fengyun 1C debris cloud has become a focal point in discussions about space sustainability and the need for international regulations to prevent the creation of new debris.

Loading next visibility...
Identifier
29892, 1999-025GN
Orbit
SSO
Country
Flag of CNCN / PRC
Related business
Manufacturer
Unknown
Mission
Spacecraft
Bus & Motor
Unknown
Mass
Unknown
Launch date (UTC)
1999-05-10 (27 years ago)
Launch vehicle
Unknown
Launch site
Taiyaun Space Center, China (TSC)
Object type
Payload
Rocket body
Debris
Shape & HBR
Unknown shape, 0.1 m
Radar Cross Section
Medium (>0.1 m² and <1 m²)

Expand to show TLE details & history
Last TLE update: 20 hours ago

TLE from 20 hours ago
0 FENGYUN 1C DEB
1 29892U 99025GN  26150.46033914  .00013340  00000-0  38085-2 0  9996
2 29892  99.1890 313.5804 0182982 167.5091 259.8311 14.35914845990686
Epoch: 2026-05-30T11:02Z
TLE epoch observation values (Epoch: 2026-05-30T11:02:53.301Z)
Latitude
63.82483°
Longitude
-119.22702°
Altitude
808.381 km
Speed
7.442 km/s
True Right ascension
19h 37m 53s
True Declination
63° 41' 22"
Sunlit
Object was in daylight at epoch
Visualization orbit readout
Latitude
Unknown
Longitude
Unknown
Altitude
Unknown
Speed
Unknown
Apparent Right ascension
Unknown
Apparent Declination
Unknown
Sunlit
N/A
Visualization observer readout
Local Sidereal Time
17:06:28
Azimuth
Unknown
Elevation
Unknown
Doppler factor
Unknown
Orbital elements
Apogee altitude
899.971 km
Perigee altitude
638.404 km
Semi-major axis
7,147.324 km
Eccentricity
0.0183
Inclination
99.189°
RAAN
313.5804°
Arg. of periapsis
167.5091°
True anomaly
257.77596°
Mean anomaly
259.8311°
Eccentric anomaly
258.80265°
Mean motion
3.59193 °/min
Orbital period
100.22 mins
BSTAR
0.0038085
Loading maneuver chart data...
Computing Atmospheric mass density...

Documentation

Showing up to 5 results
|